sat.trackr.live / text

‹ back to catalog

SCS-01 E

NORAD 63986 · 2025-100E

PAYLOAD ACTIVE UNKNOWN

§ Identity

Operator
Country
PRC
Launch date
2025-05-14
Launch site
JSC
Launch vehicle
Mass (kg)
RCS (m²)

External: N2YO · Heavens-Above · Gunter

§ Orbital elements

Epoch: 2026-05-25T03:50:19.686048Z

Period
94.70 min
Inclination
97.3631°
Eccentricity
0.0013204
Mean motion
15.20654828 rev/d
Perigee alt
494.8 km
Apogee alt
513.0 km
Semi-major
6,882.0 km
B*
6.1703e-4
RAAN
218.4364°
Arg perigee
48.3832°
Mean anomaly
311.8533°
Rev number
2,695

§ Raw data

SCS-01 E1 63986U 25100E   26145.15995007  .00013522  00000+0  61703-3 0  99962 63986  97.3631 218.4364 0013204  48.3832 311.8533 15.20654828 26956

JSON: /api/v1/satellites/63986 · /tle

For live sub-satellite position, see the globe view (requires WebGL).

§ Visibility from observer

Set your observer location to see the next 7 days of passes ≥ 10°. The values pass through the URL so the page stays shareable.

No JS? Fill the form by hand. The geolocation button needs JavaScript.